Location: Monteux
(44.0348°N, 4.9972°E)
Time: 04:36:14
(UTC+00:00)

Cosmos 2341 Rocket - Pass Details

Date: 22 April 2021
Orbit: 969 x 1003 km, 82.9° (Epoch: 11 May)

Event Time Altitude Azimuth Distance (km) Brightness Sun altitude
Rises 02:26:04 0° 333° (NNW) 3,720 7.3 -22.1°
Reaches altitude 10° 02:30:24 10° 305° (NW) 2,772 6.3 -21.5°
Enters shadow 02:32:21 12° 287° (WNW) 2,617 6.0 -21.3°
